Location: Wapato
(46.4478°N, 120.4212°W)
Time: 18:16:43
(UTC+00:00)

Explorer 7 - Pass Details

Date: 19 May 2026
Orbit: 426 x 534 km, 50.2° (Epoch: 9 June)

Event Time Altitude Azimuth Distance (km) Brightness Sun altitude
Rises 15:41:33 0° 291° (WNW) 2,498 9.7 31.9°
Reaches altitude 10° 15:43:41 10° 294° (WNW) 1,640 8.8 32.3°
Maximum altitude 15:47:23 68° 18° (NNE) 526 7.3 32.9°
Drops below altitude 10° 15:51:14 10° 102° (ESE) 1,703 10.8 33.6°
Sets 15:53:28 0° 105° (ESE) 2,604 11.3 34.0°
